TimeEST,TemperatureF,Dew PointF,Humidity,Sea Level PressureIn,VisibilityMPH,Wind Direction,Wind SpeedMPH,Gust SpeedMPH,PrecipitationIn,Events,Conditions,WindDirDegrees,DateUTC
12:15 AM,42.1,39.9,92,29.61,5.0,Calm,Calm,-,0.01,Rain,Rain,0,2013-03-06 05:15:00
12:35 AM,42.3,40.3,93,29.58,7.0,East,3.5,-,0.02,,Overcast,80,2013-03-06 05:35:00
12:55 AM,42.4,40.6,93,29.56,7.0,Calm,Calm,-,0.02,,Overcast,0,2013-03-06 05:55:00
1:15 AM,42.4,40.6,93,29.55,5.0,Calm,Calm,-,N/A,,Overcast,0,2013-03-06 06:15:00
1:35 AM,42.8,41.0,93,29.53,5.0,Calm,Calm,-,N/A,,Overcast,0,2013-03-06 06:35:00
1:55 AM,43.0,41.4,94,29.52,5.0,Calm,Calm,-,N/A,,Overcast,0,2013-03-06 06:55:00
2:15 AM,43.3,41.7,94,29.51,5.0,Calm,Calm,-,N/A,,Overcast,0,2013-03-06 07:15:00
2:35 AM,43.5,42.1,95,29.49,3.0,Calm,Calm,-,N/A,,Overcast,0,2013-03-06 07:35:00
2:55 AM,43.7,42.1,94,29.48,3.0,Calm,Calm,-,N/A,,Overcast,0,2013-03-06 07:55:00
3:15 AM,43.5,42.1,95,29.47,2.5,Calm,Calm,-,N/A,,Overcast,0,2013-03-06 08:15:00
3:35 AM,43.7,42.1,94,29.46,1.8,Calm,Calm,-,N/A,,Overcast,0,2013-03-06 08:35:00
3:55 AM,43.2,41.7,95,29.46,2.5,Calm,Calm,-,N/A,,Mostly Cloudy,0,2013-03-06 08:55:00
4:15 AM,43.5,42.1,95,29.46,4.0,SW,9.2,-,N/A,,Mostly Cloudy,230,2013-03-06 09:15:00
4:35 AM,47.1,45.9,95,29.46,10.0,WSW,15.0,-,N/A,,Overcast,250,2013-03-06 09:35:00
4:55 AM,47.5,45.3,92,29.48,10.0,West,11.5,-,N/A,,Overcast,270,2013-03-06 09:55:00
5:15 AM,45.5,41.9,87,29.49,10.0,West,18.4,25.3,N/A,,Overcast,270,2013-03-06 10:15:00
5:35 AM,42.6,38.8,86,29.50,10.0,West,20.7,27.6,N/A,,Overcast,280,2013-03-06 10:35:00
5:55 AM,40.8,36.7,85,29.51,10.0,West,15.0,25.3,N/A,,Overcast,270,2013-03-06 10:55:00
6:15 AM,39.9,36.1,86,29.52,10.0,West,19.6,25.3,N/A,,Overcast,270,2013-03-06 11:15:00
6:35 AM,39.6,35.4,85,29.52,10.0,West,15.0,21.9,N/A,,Overcast,280,2013-03-06 11:35:00
7:15 AM,38.7,32.9,80,29.54,10.0,West,15.0,32.2,N/A,,Mostly Cloudy,280,2013-03-06 12:15:00
7:35 AM,38.5,32.7,80,29.54,10.0,West,10.4,24.2,N/A,,Overcast,280,2013-03-06 12:35:00
7:55 AM,38.3,32.7,80,29.55,10.0,West,17.3,26.5,N/A,,Overcast,280,2013-03-06 12:55:00
8:15 AM,38.3,32.4,79,29.56,10.0,West,13.8,24.2,N/A,,Overcast,280,2013-03-06 13:15:00
8:35 AM,39.0,32.7,78,29.56,10.0,West,20.7,28.8,N/A,,Overcast,270,2013-03-06 13:35:00
8:55 AM,39.6,32.7,76,29.56,10.0,West,20.7,28.8,N/A,,Overcast,270,2013-03-06 13:55:00
9:15 AM,39.2,32.5,77,29.56,10.0,West,16.1,24.2,N/A,,Overcast,270,2013-03-06 14:15:00
9:35 AM,39.0,32.7,78,29.56,10.0,West,18.4,33.4,N/A,,Overcast,270,2013-03-06 14:35:00
9:55 AM,39.4,32.2,75,29.55,10.0,West,27.6,34.5,N/A,,Overcast,270,2013-03-06 14:55:00
10:15 AM,39.9,31.8,73,29.56,10.0,West,27.6,35.7,N/A,,Overcast,280,2013-03-06 15:15:00
10:35 AM,38.1,32.5,80,29.57,10.0,West,21.9,31.1,N/A,Rain,Light Rain,270,2013-03-06 15:35:00
10:55 AM,37.8,33.4,84,29.57,10.0,West,23.0,34.5,N/A,,Overcast,270,2013-03-06 15:55:00
11:15 AM,38.3,33.3,82,29.57,10.0,West,24.2,36.8,N/A,,Overcast,270,2013-03-06 16:15:00
11:35 AM,38.1,32.7,81,29.56,10.0,West,27.6,39.1,N/A,Rain,Light Rain,280,2013-03-06 16:35:00
11:55 AM,38.3,32.2,79,29.56,10.0,West,26.5,38.0,N/A,,Overcast,280,2013-03-06 16:55:00
12:15 PM,39.4,32.0,75,29.56,10.0,West,25.3,39.1,N/A,,Overcast,270,2013-03-06 17:15:00
12:35 PM,40.6,31.6,70,29.55,10.0,West,16.1,38.0,N/A,,Overcast,270,2013-03-06 17:35:00
12:55 PM,41.2,31.1,67,29.56,10.0,West,28.8,40.3,N/A,,Overcast,270,2013-03-06 17:55:00
1:15 PM,40.8,31.6,70,29.56,7.0,West,24.2,39.1,N/A,,Overcast,280,2013-03-06 18:15:00
1:55 PM,39.2,34.7,84,29.57,4.0,West,24.2,38.0,N/A,,Drizzle,280,2013-03-06 18:55:00
2:15 PM,39.2,35.4,86,29.58,7.0,West,25.3,33.4,N/A,,Light Drizzle,280,2013-03-06 19:15:00
2:35 PM,39.2,35.6,87,29.59,7.0,WNW,24.2,35.7,N/A,,Overcast,290,2013-03-06 19:35:00
2:55 PM,39.4,35.6,86,29.60,7.0,WNW,21.9,33.4,N/A,Rain,Light Rain,290,2013-03-06 19:55:00
3:15 PM,39.4,35.4,86,29.61,7.0,WNW,21.9,38.0,0.01,Rain,Light Rain,300,2013-03-06 20:15:00
3:35 PM,39.7,35.8,86,29.62,10.0,WNW,21.9,28.8,0.01,,Overcast,300,2013-03-06 20:35:00
3:55 PM,40.3,35.6,83,29.64,10.0,NW,18.4,32.2,0.01,,Overcast,310,2013-03-06 20:55:00
4:15 PM,41.0,35.1,79,29.66,10.0,NW,17.3,34.5,N/A,Rain,Light Rain,320,2013-03-06 21:15:00
4:35 PM,40.6,34.9,80,29.69,10.0,NW,18.4,35.7,N/A,,Light Drizzle,320,2013-03-06 21:35:00
4:55 PM,41.0,34.2,77,29.70,10.0,NW,16.1,41.4,N/A,,Overcast,320,2013-03-06 21:55:00
5:15 PM,41.0,33.8,76,29.72,10.0,NW,20.7,34.5,N/A,,Overcast,320,2013-03-06 22:15:00
5:35 PM,41.0,33.8,76,29.75,10.0,NNW,21.9,35.7,N/A,,Overcast,330,2013-03-06 22:35:00
5:55 PM,40.8,33.8,76,29.77,10.0,NW,19.6,32.2,N/A,,Light Drizzle,320,2013-03-06 22:55:00
6:15 PM,40.5,33.8,77,29.80,10.0,NNW,24.2,34.5,N/A,,Light Drizzle,330,2013-03-06 23:15:00
6:35 PM,40.5,34.0,78,29.82,10.0,NW,19.6,31.1,N/A,,Light Drizzle,320,2013-03-06 23:35:00
6:55 PM,40.5,34.3,79,29.84,10.0,NW,20.7,32.2,N/A,,Light Drizzle,320,2013-03-06 23:55:00
7:15 PM,40.5,34.2,78,29.85,10.0,NNW,19.6,29.9,N/A,,Light Drizzle,330,2013-03-07 00:15:00
7:35 PM,40.6,33.8,77,29.87,10.0,NW,15.0,32.2,N/A,,Light Drizzle,320,2013-03-07 00:35:00
7:55 PM,40.1,34.5,80,29.89,10.0,NW,20.7,27.6,N/A,Rain,Light Rain,320,2013-03-07 00:55:00
8:15 PM,39.6,34.7,83,29.90,10.0,NNW,16.1,27.6,N/A,,Light Drizzle,330,2013-03-07 01:15:00
8:35 PM,39.9,34.2,80,29.91,10.0,NW,18.4,25.3,N/A,,Overcast,320,2013-03-07 01:35:00
8:55 PM,40.5,34.0,78,29.92,10.0,NW,11.5,24.2,N/A,,Overcast,320,2013-03-07 01:55:00
9:15 PM,40.6,33.8,77,29.92,10.0,NW,17.3,25.3,N/A,,Overcast,320,2013-03-07 02:15:00
9:35 PM,41.0,33.6,75,29.93,10.0,NNW,19.6,25.3,N/A,,Overcast,330,2013-03-07 02:35:00
9:55 PM,41.0,33.1,73,29.93,10.0,NNW,13.8,27.6,N/A,,Mostly Cloudy,330,2013-03-07 02:55:00
10:15 PM,40.6,32.7,73,29.94,10.0,NW,13.8,24.2,N/A,,Scattered Clouds,320,2013-03-07 03:15:00
10:35 PM,40.3,32.2,73,29.94,10.0,NW,12.7,18.4,N/A,,Clear,310,2013-03-07 03:35:00
10:55 PM,40.5,32.0,72,29.95,10.0,NW,12.7,19.6,N/A,,Clear,310,2013-03-07 03:55:00
11:15 PM,40.3,32.0,72,29.95,10.0,NW,11.5,21.9,N/A,,Clear,320,2013-03-07 04:15:00
11:35 PM,40.1,31.6,72,29.95,10.0,NW,13.8,24.2,N/A,,Clear,320,2013-03-07 04:35:00
11:55 PM,40.3,31.1,70,29.95,10.0,NW,12.7,23.0,N/A,,Clear,320,2013-03-07 04:55:00